Regional Weather Roundup
Issued by NWS Green Bay, WI

Home | Current Version | Previous Version | Text Only | Print | Product List | Glossary On
Versions: 1 2 3 4 5 6 7 8 9 10 11 12 13 14 15 16 17 18 19 20 21 22 23 24 25 26 27 28 29 30 31 32 33 34 35 36 37 38 39 40 41 42 43 44 45 46 47 48 49 50
000
ASUS43 KGRB 220111
RWRGRB

NORTH-CENTRAL AND NORTHEAST WISCONSIN REGIONAL WEATHER ROUNDUP
NATIONAL WEATHER SERVICE GREEN BAY WI
800 PM CDT THU SEP 21 2017

WIZ005-009-010>012-018-019-220200-
NORTH CENTRAL WISCONSIN

CITY           SKY/WX    TMP DP  RH WIND       PRES   REMARKS
IRONWOOD       CLEAR     74  67  78 SE8       29.94R
MANITOWISH WTR PTCLDY    69  69 100 SE6       29.98R
ARBOR VITAE    CLEAR     72  68  88 SE7       29.98S
EAGLE RIVER    CLEAR     69  64  82 SE5       30.00S
LAND O LAKES   CLOUDY    72  65  79 S7        30.01R
RHINELANDER    CLEAR     67  67 100 SE5       30.00S
PHILLIPS       CLEAR     69  67  94 SE3       29.96R
ANTIGO         CLEAR     67  67 100 E6        30.02R
TOMAHAWK       CLEAR     67  64  91 CALM      29.99R
MERRILL        CLEAR     70  68  95 SE5       29.98S
$$

WIZ013-073-220200-
NORTHEAST WISCONSIN

CITY           SKY/WX    TMP DP  RH WIND       PRES   REMARKS
IRON MOUNTAIN  CLEAR     70  66  87 CALM      30.00R
MARINETTE      CLEAR     69  67  93 SE6       30.01R
OCONTO         CLEAR     68  66  93 E3        30.00R
$$

WIZ017-030-035>037-045-220200-
CENTRAL WISCONSIN

CITY           SKY/WX    TMP DP  RH WIND       PRES   REMARKS
MEDFORD        CLEAR     70  66  89 SE5       29.97R
WAUSAU         CLEAR     71  67  87 E7        29.96R
MOSINEE        CLEAR     72  66  83 E6        29.99R
MARSHFIELD     CLEAR     71  64  78 SE6       29.95S
WISC RAPIDS    CLEAR     70  66  87 E5        29.96S
STEVENS POINT  CLEAR     67  67  99 E3        29.98R
WAUPACA        CLEAR     71  70  95 CALM      29.98R
SHAWANO        CLEAR     72  70  92 E3        29.99R FOG
CLINTONVILLE   CLEAR     70  66  88 SE3       29.98R
WAUTOMA        CLEAR     70  68  93 CALM      29.97R
$$

WIZ038-039-048-051-220200-
FOX VALLEY

CITY           SKY/WX    TMP DP  RH WIND       PRES   REMARKS
NWS GREEN BAY  CLOUDY    69  68  96 NE6       29.99R
APPLETON       MOCLDY    75  61  60 VRB5      29.98R
OSHKOSH        CLOUDY    75  67  76 SE7       29.98R
FOND DU LAC    CLOUDY    76  66  71 SE9       29.99R
$$

WIZ022-050-052-220200-
EAST CENTRAL WISCONSIN

CITY           SKY/WX    TMP DP  RH WIND       PRES   REMARKS
EPHRAIM        FAIR      65  64  98 SE6       30.01R FOG
WASHINGTON ISL FAIR      65  65  97 CALM      30.01S FOG
STURGEON BAY   FOG       64  64 100 SE6       30.03R VSB 1/2
MANITOWOC      FOG       65  65 100 CALM      30.02R VSB 1/2
SHEBOYGAN      CLOUDY    71  68  90 SE3       30.01R
$$

LMZ563-521-522-541>543-220200-
LAKESHORE

STATION/POSITION TIME  TEMP    WIND        PRES    VSBY  WAVE
                       AIR SEA DIR/SP/G                  HT/PER
                 (UTC) (F)     (DEG/KT/KT) (MB)    (MI)  (FT/S)
SHEBOYGAN LKSHOR 0100   69     120/  2/  3 1015.9R
KEWAUNEE LKSHORE 0048   64     120/  2/  3 1015.7R
NORTHPORT PIER   0040   68     140/  5/  7 1015.9S
N MID LAKE BUOY  0050   68 66  170/  8/  8 1017.0R         1
S GREEN BAY BUOY 0100   69 68  120/  6/  8 1015.7
SISTER BAY LKSHO 0104   66     160/  8/ 10   N/A
MENOMINEE LKSHOR 0048   69     110/  7/  8 1015.7R
$$



USA.gov is the U.S. government's official web portal to all federal, state and local government web resources and services.